sat.trackr.live / text

‹ back to catalog

TEN-KOH

NORAD 43677 · 2018-084G

PAYLOAD ACTIVE UNKNOWN

§ Identity

Operator
Country
JPN
Launch date
2018-10-29
Launch site
TANSC
Launch vehicle
Mass (kg)
RCS (m²)

External: N2YO · Heavens-Above · Gunter

§ Orbital elements

Epoch: 2026-09-19T18:52:17.985792Z

Period
95.79 min
Inclination
98.0719°
Eccentricity
0.0009818
Mean motion
15.03252584 rev/d
Perigee alt
550.1 km
Apogee alt
563.7 km
Semi-major
6,935.0 km
B*
5.9286e-5
RAAN
99.1525°
Arg perigee
153.9496°
Mean anomaly
206.2224°
Rev number
43,037

§ Raw data

TEN-KOH1 43677U 18084G   26262.78631928  .00000737  00000+0  59286-4 0  99902 43677  98.0719  99.1525 0009818 153.9496 206.2224 15.03252584430377

JSON: /api/v1/satellites/43677 · /tle

For live sub-satellite position, see the globe view (requires WebGL).

§ Visibility from observer

Set your observer location to see the next 7 days of passes ≥ 10°. The values pass through the URL so the page stays shareable.

No JS? Fill the form by hand. The geolocation button needs JavaScript.

§ Radio — SatNOGS DB

ModeDescriptionDownlinkUplink
CW CW Beacon 437.390 MHz
GMSK Telemetry GMSK9k6 AX.25 437.390 MHz 435.280 MHz
WSJT WSJT 437.510 MHz

3 transmitters · refreshed weekly from db.satnogs.org